Lapse_Rate
5.4 5.5 5.6 5.7 5.8 5.9 6.1 6.2 6.4 6.7 6.7 6.7 6.9 7.1 6.9 6.9 7.0 7.2 7.1 7.2 7.2 7.3 7.5 7.4 7.2 7.1 7.0 7.0 7.1 7.0 6.9 6.7 6.6 6.7 6.8 6.6 6.3 6.1 6.0 5.9 6.0 5.9 6.1 5.7 6.0
5.3 5.4 5.5 5.6 5.7 5.7 5.8 6.0 6.1 6.5 6.7 6.7 6.9 7.1 6.9 6.6 6.8 7.0 7.1 7.3 7.2 7.3 7.5 7.4 7.3 7.3 7.2 7.1 7.1 7.2 6.9 6.9 6.7 6.7 7.1 6.7 6.4 6.3 6.3 6.1 5.9 6.0 6.1 6.1 6.1
5.2 5.3 5.4 5.5 5.6 5.6 5.7 5.8 5.9 6.1 6.5 6.6 6.8 6.8 6.8 6.8 6.8 6.9 7.1 6.8 7.0 7.2 7.3 7.3 7.2 7.1 7.0 7.0 7.1 7.1 7.1 7.3 7.1 6.8 6.9 6.8 6.4 6.2 6.1 6.1 6.0 6.0 6.2 6.3 6.3
5.1 5.2 5.4 5.4 5.5 5.7 5.7 5.7 5.8 5.9 6.2 6.3 6.6 6.7 6.7 6.8 6.8 6.8 6.9 6.8 7.0 7.3 7.3 7.1 7.1 7.1 7.3 7.0 6.9 7.0 7.3 7.2 7.2 7.0 7.1 6.9 6.8 6.6 6.3 6.1 6.0 6.3 6.4 6.2 6.2
5.0 5.2 5.3 5.4 5.5 5.6 5.7 5.8 5.8 5.8 6.0 6.2 6.4 6.4 6.5 7.0 6.9 6.8 6.8 6.9 6.8 7.1 7.3 7.2 7.1 7.2 7.2 7.0 7.0 7.2 7.3 7.4 7.2 7.2 7.0 7.2 7.1 6.9 6.7 6.4 6.1 6.1 6.4 6.2 6.0
5.1 5.2 5.4 5.4 5.5 5.5 5.7 5.8 5.8 5.8 5.9 6.1 6.3 6.3 6.4 6.7 6.9 7.0 6.6 6.8 6.9 7.0 6.9 6.8 7.0 7.1 7.5 7.1 7.2 7.2 7.3 7.3 7.3 7.3 7.2 7.1 7.1 6.9 6.9 6.5 6.1 6.0 6.3 6.3 6.1
5.1 5.2 5.4 5.5 5.5 5.6 5.7 5.8 5.8 5.8 5.8 6.1 6.3 6.3 6.3 6.4 6.5 6.6 6.7 6.6 6.8 7.0 6.9 6.5 6.9 6.8 7.2 7.8 7.6 7.3 7.4 7.4 7.4 7.3 7.1 7.0 7.0 7.2 7.0 6.8 6.3 6.3 6.3 6.2 6.3
4.9 5.1 5.3 5.5 5.6 5.6 5.6 5.7 5.8 5.8 5.8 5.9 6.1 6.4 6.2 6.2 6.2 6.3 6.3 6.5 6.9 7.1 7.0 6.8 6.8 6.9 7.0 7.4 7.9 7.7 7.6 7.4 7.2 7.2 7.0 7.2 7.2 7.1 7.1 7.0 6.6 6.4 6.4 6.3 6.5
4.9 5.1 5.3 5.4 5.5 5.6 5.6 5.7 5.7 5.8 5.7 5.8 6.1 6.2 6.2 6.4 6.2 6.2 6.2 6.3 6.8 7.0 7.2 7.0 7.0 7.3 7.4 7.9 7.9 7.7 7.5 7.7 7.5 7.3 7.2 7.2 7.4 7.2 7.1 7.0 6.9 6.7 6.4 6.3 6.5
5.1 5.1 5.4 5.4 5.4 5.5 5.6 5.7 5.7 5.7 5.8 5.8 5.8 6.1 6.2 6.4 6.4 6.2 6.3 6.3 6.6 7.0 7.2 7.3 7.5 8.0 7.9 8.0 7.7 7.4 7.4 7.7 7.6 7.4 7.3 7.2 7.3 7.1 6.9 6.8 6.8 6.8 6.5 6.2 6.3
5.5 5.3 5.4 5.5 5.5 5.6 5.6 5.6 5.7 5.7 5.9 5.8 5.8 5.9 6.4 6.6 6.4 6.4 6.4 6.4 6.6 7.1 7.2 7.4 8.1 8.3 8.1 8.3 7.9 7.8 7.5 7.3 7.6 7.4 7.4 7.3 7.2 7.2 7.0 6.8 6.8 6.8 6.6 6.2 6.1
5.7 5.6 5.5 5.6 5.6 5.7 5.7 5.7 5.6 5.8 5.8 5.9 6.0 6.1 6.0 6.4 6.7 6.7 6.8 6.8 7.1 7.3 7.6 7.8 8.2 8.2 8.1 8.4 8.3 8.2 7.4 7.3 7.1 7.5 7.6 7.7 7.9 7.6 7.6 7.5 7.0 6.8 6.6 6.4 6.0
6.0 5.9 5.8 5.8 5.7 5.7 5.7 5.7 5.7 5.8 5.8 6.0 6.2 6.3 6.2 6.4 6.7 6.9 7.0 7.2 7.3 7.3 7.8 7.9 8.1 8.3 8.1 8.4 8.5 8.6 7.9 8.3 8.1 8.2 7.9 7.8 7.9 8.0 8.0 7.6 7.3 7.1 6.8 6.5 6.2
6.3 6.2 6.1 6.0 6.1 5.8 5.8 5.6 5.6 5.7 6.0 6.4 6.6 6.5 6.3 6.3 6.6 6.8 7.1 7.1 7.1 7.5 7.7 8.0 8.1 8.3 8.6 8.6 8.8 8.4 8.4 8.5 8.1 8.2 7.8 7.6 7.9 8.3 8.3 8.0 7.7 7.5 7.1 6.9 6.5
6.8 6.8 6.6 6.4 6.5 6.2 6.1 5.7 5.8 5.8 6.1 6.5 6.6 6.8 6.6 6.6 6.6 6.8 6.9 7.0 7.4 7.4 7.7 8.2 8.0 8.3 8.6 8.8 9.0 8.5 8.3 8.6 7.9 7.7 7.7 7.5 7.4 8.6 8.7 8.2 8.2 7.8 7.5 7.3 7.0
6.8 6.9 7.0 6.8 6.7 6.6 6.3 6.1 6.0 6.0 6.3 6.7 6.6 6.7 6.7 6.7 6.8 7.0 6.9 7.0 7.3 7.0 7.4 7.9 8.0 8.2 8.8 9.0 9.0 9.1 8.7 8.3 7.8 7.2 7.8 7.6 7.3 8.6 8.9 8.6 8.4 8.2 7.9 7.6 7.4
6.9 6.9 7.0 6.9 6.9 6.7 6.4 6.2 6.2 6.4 7.0 6.9 6.9 7.0 7.0 6.9 6.9 6.9 7.0 7.1 7.1 7.2 7.5 8.0 8.1 8.5 8.8 9.0 9.1 9.1 9.0 8.7 8.2 7.9 8.6 7.9 7.3 8.8 8.6 8.7 8.3 8.5 8.0 7.6 7.4
6.9 6.9 6.9 7.0 6.9 6.8 6.6 6.2 6.2 7.1 7.1 7.1 7.1 7.1 7.3 7.1 7.0 6.9 6.9 6.9 7.2 7.4 7.7 7.7 8.5 8.8 9.0 9.1 9.2 9.3 9.1 9.3 8.7 8.8 8.9 7.9 8.1 8.5 8.8 8.5 8.3 8.5 8.1 7.9 7.6
6.8 6.8 6.9 7.1 7.0 6.8 6.6 6.2 7.1 7.2 7.1 7.2 7.3 7.3 7.4 7.2 7.2 7.1 7.1 7.2 7.3 7.6 7.5 7.8 8.4 8.7 8.9 9.0 8.9 8.9 8.8 9.0 8.8 8.2 8.3 8.3 8.5 8.5 8.6 8.7 8.3 8.3 8.5 8.4 8.4
6.7 6.7 6.8 6.9 6.9 6.6 6.3 6.8 7.2 7.0 7.1 7.3 7.4 7.5 7.6 7.5 7.5 7.5 7.5 7.6 7.7 7.9 8.0 7.9 8.3 8.6 8.8 8.8 8.7 8.5 8.8 8.7 8.7 8.9 8.9 8.9 8.3 8.7 8.5 9.0 8.6 8.3 8.6 8.8 8.8
6.5 6.5 6.7 6.7 6.7 6.3 6.1 6.7 7.1 7.0 7.1 7.3 7.3 7.6 7.7 7.8 7.9 7.8 7.8 8.0 7.9 8.0 8.1 8.0 7.9 8.5 8.4 8.6 8.4 8.2 8.4 8.6 8.7 8.6 9.2 9.2 9.2 8.8 8.9 9.0 9.1 8.8 8.7 9.0 9.0
6.4 6.3 6.5 6.6 6.4 6.1 6.3 6.8 6.9 6.9 6.9 7.0 7.2 7.5 7.7 8.0 8.1 8.1 7.9 8.1 8.3 8.4 8.3 8.6 8.3 8.3 8.4 8.7 8.7 8.8 8.8 8.7 8.8 8.0 8.4 8.3 8.8 8.9 8.8 9.0 9.0 9.2 9.0 9.2 9.1
6.4 6.3 6.4 6.4 6.3 6.3 6.3 6.5 6.5 6.7 6.7 6.6 7.0 7.3 7.6 7.9 8.1 8.2 8.2 8.2 8.3 8.3 8.4 8.7 8.3 8.5 8.1 8.2 8.7 8.7 8.7 8.7 8.5 8.5 8.4 8.8 8.7 9.0 9.1 9.0 8.8 9.0 9.0 9.0 8.9
6.4 6.2 6.3 6.3 6.2 6.2 6.2 6.1 6.2 6.8 6.9 6.7 7.1 7.3 7.6 7.7 7.9 8.1 8.1 8.3 8.5 8.6 8.8 8.7 8.7 8.7 9.0 8.6 8.9 8.7 8.8 8.6 8.6 8.4 8.4 8.5 8.7 8.8 9.0 9.0 8.7 8.7 8.8 8.9 8.9
6.1 6.0 6.4 6.2 6.3 6.2 6.2 6.1 6.2 6.5 6.8 6.9 7.2 7.5 7.9 8.1 8.0 8.1 8.3 8.2 8.2 8.4 8.5 8.6 8.6 8.9 8.8 8.8 8.8 8.8 8.7 8.6 8.5 8.5 8.6 8.6 8.6 8.8 8.9 8.7 8.3 8.3 8.4 8.7 8.9
5.9 5.9 6.1 6.2 6.3 6.5 6.4 6.5 6.4 6.5 6.7 7.1 7.3 7.7 7.9 8.1 8.5 8.5 8.5 8.5 8.5 8.4 8.3 8.3 8.4 8.5 8.7 8.6 8.7 8.7 8.6 8.5 8.5 8.5 8.5 8.7 8.6 8.4 8.3 8.2 8.0 8.0 8.0 8.3 8.6
6.2 6.3 6.1 6.2 6.3 6.5 6.6 6.7 6.7 6.8 6.9 7.1 7.3 7.6 7.8 7.9 8.0 8.4 8.6 8.5 8.5 8.6 8.6 8.6 8.6 8.6 8.4 8.4 8.3 8.1 8.2 8.4 8.4 8.5 8.6 8.5 8.8 8.5 8.1 7.6 7.5 7.8 7.8 7.9 8.0
Wind_Speed
14 13 12 12 12 12 12 11 10 10 9 8 9 8 9 10 8 2 5 2 8 20 20 14 6 5 2 1 1 1 2 4 5 9 5 10 7 3 4 10 3 3 7 11 17
15 14 14 13 12 13 14 12 11 9 10 10 9 7 7 9 2 8 5 12 29 25 17 13 8 5 1 0 1 1 1 4 6 9 8 11 10 10 6 12 4 7 12 17 18
16 15 14 14 13 14 14 13 13 11 9 10 9 8 5 5 2 4 10 21 28 17 14 7 6 1 1 1 1 1 1 3 3 11 11 13 11 8 8 8 8 12 17 18 17
16 16 15 14 13 13 14 14 14 12 11 10 8 8 7 3 1 3 14 23 24 14 12 6 2 1 2 2 2 3 4 5 1 11 11 16 11 8 12 2 8 16 20 19 17
18 17 16 15 14 13 14 14 14 13 11 10 7 6 2 2 3 4 13 21 19 12 8 7 4 2 5 4 1 4 5 4 4 12 9 13 13 7 12 3 12 18 19 18 17
19 18 18 16 15 14 14 15 15 13 10 9 7 6 2 1 1 12 15 17 12 11 8 6 2 3 6 5 3 3 6 4 6 11 7 11 7 6 6 11 15 19 19 17 17
20 19 18 18 16 15 15 15 15 13 10 8 6 2 1 0 1 13 14 9 9 11 4 9 5 4 5 5 4 2 7 8 6 7 5 9 6 12 9 14 16 17 16 16 17
22 21 20 18 17 17 16 17 16 12 8 5 4 2 3 2 8 13 6 5 6 8 7 5 2 6 4 6 3 2 3 2 3 8 5 10 7 12 15 17 16 17 16 16 17
22 21 20 19 18 17 19 19 9 3 3 0 2 2 2 7 5 10 7 6 9 6 4 2 2 2 3 3 2 6 2 2 4 1 7 11 4 2 16 16 16 17 16 15 15
23 22 20 19 18 18 22 7 1 1 2 2 2 3 2 3 5 8 5 9 4 7 3 3 1 3 2 3 4 4 3 2 4 6 7 10 13 3 13 16 17 18 17 16 16
24 23 21 19 17 16 10 1 2 2 2 4 1 2 3 2 4 5 7 7 3 3 4 3 3 5 6 6 3 4 5 7 5 4 7 9 9 8 14 14 14 16 17 17 18
25 23 22 19 16 13 3 2 1 2 4 5 5 6 5 2 1 4 11 8 7 6 4 3 5 5 5 3 6 7 8 12 4 1 5 3 10 7 14 19 20 18 17 18 17
25 24 21 19 19 2 2 3 2 3 2 3 4 4 3 7 4 6 12 6 4 6 6 5 2 5 3 4 5 9 10 8 3 4 3 6 8 8 9 14 15 16 17 16 17
24 23 20 22 2 1 3 2 3 4 2 3 4 3 6 4 4 2 10 4 4 7 6 6 4 4 2 4 4 3 9 15 6 4 4 5 7 8 6 12 15 17 17 18 18
23 22 18 11 3 3 2 5 3 3 3 3 3 2 3 6 5 4 2 2 6 5 4 2 3 2 9 1 8 4 4 12 8 1 8 4 5 4 1 8 16 16 17 17 18
24 20 17 1 2 5 4 2 2 2 4 3 3 5 7 2 2 3 3 2 2 4 2 6 2 4 3 4 7 6 8 6 3 3 4 3 6 7 2 2 3 14 17 16 16
27 23 7 3 1 1 3 3 2 3 2 5 4 5 6 6 5 3 7 9 7 5 6 3 7 3 4 5 7 4 4 1 1 3 3 3 4 8 7 9 7 9 15 12 14
32 20 9 4 3 4 3 2 4 2 4 1 2 4 8 7 5 3 5 9 2 2 1 3 12 7 6 9 12 7 6 4 4 3 4 2 4 2 7 8 2 2 8 8 10
26 1 2 2 13 3 3 4 4 4 1 2 3 4 4 4 4 7 7 7 8 11 8 2 5 2 4 1 3 6 5 2 3 2 3 1 4 5 8 13 10 10 7 5 5
3 2 2 3 11 3 3 4 3 3 3 0 3 3 8 8 7 8 8 3 6 13 13 6 4 1 1 2 7 4 7 3 1 3 3 1 4 2 9 12 7 7 6 5 5
2 2 6 3 4 1 8 5 4 5 4 2 1 1 2 5 8 6 3 1 0 5 6 8 4 4 3 2 4 4 3 5 3 2 2 3 2 7 11 9 3 6 7 7 7
2 2 2 3 3 1 5 4 1 2 2 3 2 3 4 6 6 7 8 3 2 7 9 8 3 6 4 2 4 3 3 5 4 5 1 2 1 7 8 8 7 8 8 10 12
2 1 1 3 3 3 1 2 2 4 3 2 3 3 0 3 3 4 5 4 4 6 8 9 6 5 2 4 4 3 3 3 5 2 5 3 1 6 9 12 11 11 12 14 15
1 2 2 2 1 2 3 2 2 2 4 3 3 2 2 2 1 5 5 3 1 3 3 6 3 5 10 8 3 5 6 6 3 4 7 4 3 4 10 12 12 13 14 16 17
4 2 2 3 2 1 1 1 2 2 2 2 3 8 6 5 2 4 3 3 3 2 2 3 4 3 1 2 4 5 10 10 7 2 4 6 4 7 8 11 12 13 14 17 18
2 2 1 2 1 2 1 2 1 2 2 3 5 2 6 5 6 8 6 4 2 2 2 1 2 2 3 1 2 4 3 4 2 2 3 9 8 8 11 13 14 13 14 15 16
2 0 2 2 1 3 2 1 2 3 1 1 1 2 4 2 2 4 3 3 3 1 2 1 5 5 4 1 1 4 7 5 3 1 1 7 9 15 14 13 12 12 13 14 14
Wind_Direction
0 359 357 354 347 339 335 338 341 336 324 315 309 316 314 317 310 205 241 185 153 151 143 142 159 172 208 203 199 203 106 130 143 169 158 150 146 136 102 136 127 48 150 127 141
358 356 354 352 347 339 333 335 333 334 325 320 312 315 313 326 292 255 242 155 145 143 148 163 170 186 229 41 121 257 103 149 187 173 166 164 164 148 149 154 136 87 107 134 147
356 355 352 350 348 339 332 331 332 333 323 321 317 314 319 308 240 252 164 143 157 152 147 155 142 212 330 319 154 138 290 179 211 191 166 163 168 164 155 188 190 163 153 155 159
356 353 350 348 346 339 331 329 329 329 320 318 320 313 315 218 47 335 156 147 151 146 141 141 138 243 297 328 200 283 261 258 117 172 160 169 157 183 182 156 187 162 163 162 170
354 352 349 346 343 339 329 324 324 323 317 314 318 321 260 224 270 153 148 141 149 150 169 171 182 282 349 334 244 255 334 346 145 150 168 156 177 183 201 170 148 152 164 173 179
355 352 347 345 341 336 329 321 319 319 314 309 312 315 264 252 65 155 150 149 163 170 166 199 252 317 291 306 268 306 320 105 132 135 150 171 173 196 187 143 150 162 174 180 188
355 352 348 343 340 335 328 319 312 309 302 300 305 285 231 220 103 155 145 166 179 181 170 229 264 266 324 286 306 268 118 102 100 135 136 151 181 219 170 165 163 177 182 187 196
351 347 345 343 339 333 326 316 305 292 286 280 282 238 246 47 143 156 148 125 163 212 250 294 238 276 253 313 281 44 87 130 93 170 145 185 267 205 175 174 178 183 188 194 197
351 347 343 341 337 332 325 317 310 270 226 340 201 271 234 144 167 174 176 177 178 214 265 292 358 315 283 283 93 41 64 124 136 103 155 207 272 193 182 189 187 188 191 200 204
348 345 341 338 336 332 324 296 339 217 214 213 232 246 203 127 141 144 187 145 159 174 232 218 223 257 237 13 36 346 330 257 208 175 193 207 245 213 190 200 197 196 194 198 208
344 342 339 336 333 332 336 215 230 172 179 222 152 294 290 311 156 151 166 171 158 191 206 194 254 300 337 313 306 254 236 258 266 240 224 235 251 210 190 203 207 202 200 203 210
339 339 337 331 328 316 263 221 107 4 300 224 237 273 259 293 256 145 167 166 180 195 169 207 261 271 294 270 241 246 252 257 273 244 252 315 279 240 195 208 207 202 205 211 213
336 337 336 329 323 154 250 227 346 319 281 282 202 214 209 181 224 197 178 146 170 191 200 245 263 305 275 327 229 232 233 259 253 152 99 316 275 236 219 221 213 214 212 208 215
335 336 335 329 272 43 236 138 302 219 310 231 214 219 154 184 214 193 183 156 169 221 180 248 267 251 308 288 205 256 234 260 347 343 333 0 306 292 224 220 214 214 208 209 212
334 333 330 332 318 215 70 320 143 194 294 124 158 52 132 197 123 176 190 132 200 185 189 196 192 249 306 320 183 312 3 233 261 349 314 265 277 263 306 224 221 220 222 214 213
330 327 326 204 224 261 310 309 205 234 249 158 133 156 159 181 122 108 161 69 70 182 266 264 316 276 253 170 193 120 99 80 93 282 268 343 247 293 274 266 301 210 224 218 213
327 319 286 226 263 338 299 178 205 229 9 164 179 176 191 170 182 139 170 183 202 200 232 235 237 216 212 233 135 168 175 352 245 198 281 36 216 278 331 305 282 223 218 217 215
326 318 198 219 303 320 191 149 223 239 245 11 121 120 195 165 198 144 160 205 178 174 135 270 252 208 170 240 270 191 225 249 288 279 334 126 243 69 336 16 5 179 201 192 209
321 161 183 260 216 285 172 199 230 207 322 328 129 166 175 183 200 181 200 212 205 186 218 236 257 288 238 227 224 159 195 47 143 119 255 273 255 109 76 40 55 73 111 153 196
318 311 39 8 163 203 180 225 239 239 324 244 230 212 174 178 182 189 190 182 207 194 207 188 268 202 69 145 59 247 129 175 207 246 275 198 275 26 1 2 18 51 44 19 357
274 161 8 135 181 186 200 218 248 247 233 303 299 189 174 184 204 184 167 138 81 167 190 160 231 191 226 221 174 143 178 64 107 324 280 307 57 5 346 345 72 53 38 35 36
317 148 53 245 157 314 206 190 202 271 174 294 252 256 212 169 171 193 201 224 351 177 183 192 208 246 283 306 240 254 155 180 222 173 74 316 300 16 29 52 63 69 72 69 65
37 50 97 279 186 192 216 223 252 249 233 246 273 239 282 183 181 191 189 116 53 188 169 170 215 215 150 174 184 208 131 113 110 132 171 214 138 47 63 63 60 74 73 74 72
300 131 85 66 21 135 158 159 243 250 252 254 273 201 176 175 298 170 167 151 99 139 71 167 162 233 230 218 152 186 179 169 243 184 160 217 152 81 72 73 73 76 78 79 77
9 65 358 164 149 95 280 150 236 277 203 232 230 228 198 195 201 192 176 182 132 62 96 215 233 208 209 307 233 212 188 180 206 191 228 132 136 121 104 102 93 92 85 80 78
23 351 20 81 272 187 230 175 249 259 280 218 240 201 200 215 207 202 178 213 168 107 105 76 191 215 174 115 163 193 143 167 180 148 153 145 121 141 123 117 105 96 93 85 80
15 196 289 14 86 189 139 238 208 303 125 254 106 134 156 75 45 40 61 64 82 58 97 95 158 179 215 15 138 228 201 189 143 149 200 195 143 149 132 113 103 101 87 83 78